This demonstration page uses our WeatherBlox Daily Observations layout. Learn more.

Left ArrowRight Arrow

34.74481, -87.66753

Hourly Observations for May 29, 2017

Temp ( °F °C ) Dew Point ( °F °C ) Humidity (%) Winds ( mph kmh ) Pressure ( in mb ) Visibility ( mi km ) Precip ( " mm )
12:53 am 00:53 Mostly Cloudy 69 20.6 65 18.3 87 87 Calm 29.95 1014 10 16 0.00 0.00
1:53 am 01:53 Cloudy with Heavy Rain 70 21.1 66 18.9 87 87 W 7 11 29.97 1015 5 8 0.08 2.03
2:53 am 02:53 Cloudy 69 20.6 66 18.9 90 90 W 7 11 29.98 1015 10 16 0.11 2.79
3:53 am 03:53 Cloudy with Light Rain 69 20.6 66 18.9 90 90 WSW 3 6 29.97 1015 10 16 0.04 1.02
4:53 am 04:53 Cloudy 68 20 66 18.9 93 93 Calm 29.97 1015 10 16 0.00 0.03
5:53 am 05:53 Sunny 68 20 65 18.3 90 90 N 6 9 29.93 1014 10 16 0.00 0.00
6:53 am 06:53 Sunny 70 21.1 66 18.9 87 87 Calm 29.93 1013 10 16 0.00 0.00
7:29 am 07:29 Partly Cloudy 70 21.1 67 19.4 90 90 Calm 29.94 1014 10 16 0.00 0.00
7:53 am 07:53 Partly Cloudy 70 21.1 67 19.4 90 90 SSE 5 7 29.98 1015 10 16 0.00 0.00
8:53 am 08:53 Mostly Cloudy 71 21.7 68 20 90 90 E 3 6 30.00 1016 10 16 0.00 0.03
9:53 am 09:53 Mostly Cloudy 73 22.8 68 20 84 84 SSW 5 7 30.03 1017 10 16 0.00 0.00
10:53 am 10:53 Mostly Cloudy 75 23.9 67 19.4 76 76 WSW 6 9 30.05 1018 10 16 0.00 0.00
11:11 am 11:11 Partly Cloudy 76 24.4 67 19.4 74 74 W 3 6 30.03 1017 10 16 0.00 0.00
11:53 am 11:53 Mostly Cloudy 78 25.6 66 18.9 67 67 Calm 30.04 1017 10 16 0.00 0.00
12:51 pm 12:51 Mostly Cloudy 75 24 68 20 78 78 NNW 7 11 30.03 1017 10 16 0.01 0.25
12:53 pm 12:53 Mostly Cloudy 75 23.9 68 20 79 79 NNW 6 9 30.03 1017 10 16 0.01 0.25
1:49 pm 13:49 Sunny with Nearby Thunderstorms 79 26 66 19 65 65 VRB 3 6 30.00 1016 10 16 0.00 0.03
1:53 pm 13:53 Sunny with Nearby Thunderstorms 79 26.1 67 19.4 67 67 N 5 7 30.00 1016 10 16 0.00 0.03
2:13 pm 14:13 Partly Cloudy with Light Rain 77 25 67 19.4 71 71 Calm 30.00 1016 10 16 0.00 0.03
2:53 pm 14:53 Sunny 81 27.2 67 19.4 62 62 SW 5 7 29.98 1015 10 16 0.00 0.03
3:53 pm 15:53 Partly Cloudy with Nearby Thunderstorms 80 26.7 67 19.4 64 64 WNW 13 20 29.99 1016 10 16 0.00 0.00
4:02 pm 16:02 Mostly Cloudy 73 22.8 63 17.2 71 71 N 8 13 29.97 1015 10 16 0.00 0.00
4:09 pm 16:09 Mostly Cloudy with Thunderstorms 70 21.1 64 17.8 82 82 VRB 7 11 29.97 1015 10 16 0.02 0.51
4:38 pm 16:38 Mostly Cloudy 72 22.2 65 18.3 79 79 Calm 29.97 1015 10 16 0.13 3.30
4:53 pm 16:53 Mostly Cloudy 74 23.3 67 19.4 79 79 Calm 29.98 1015 10 16 0.13 3.30
5:53 pm 17:53 Sunny 74 23.3 67 19.4 79 79 Calm 29.99 1016 10 16 0.00 0.00
6:53 pm 18:53 Sunny 74 23.3 67 19.4 79 79 Calm 29.99 1016 10 16 0.00 0.00
7:53 pm 19:53 Sunny 72 22.2 67 19.4 84 84 S 5 7 30.00 1016 10 16 0.00 0.00
8:53 pm 20:53 Mostly Clear 69 20.6 66 18.9 90 90 Calm 30.02 1017 10 16 0.00 0.00
9:38 pm 21:38 Clear with Mist and Fog 68 20 65 18.3 90 90 Calm 30.03 1017 3 4 0.00 0.00
9:48 pm 21:48 Clear with Mist and Fog 66 19 64 18 94 94 Calm 30.03 1017 1 2 0.00 0.00
9:53 pm 21:53 Clear with Mist and Fog 68 20 65 18.3 90 90 Calm 30.04 1017 1 2 0.00 0.00
10:14 pm 22:14 Clear with Mist and Fog 67 19.4 65 18.3 93 93 Calm 30.03 1017 3 5 0.00 0.00
10:19 pm 22:19 Clear with Mist and Fog 67 19.4 64 17.8 91 91 Calm 30.03 1017 2 3 0.00 0.00
10:31 pm 22:31 Clear with Mist and Fog 67 19.4 65 18.3 93 93 Calm 30.03 1017 3 5 0.00 0.00
10:39 pm 22:39 Clear with Mist and Fog 67 19.4 64 17.8 91 91 Calm 30.03 1017 2 3 0.00 0.00
10:53 pm 22:53 Clear with Mist and Fog 67 19.4 65 18.3 93 93 Calm 30.05 1018 2 3 0.00 0.00
11:03 pm 23:03 Clear 67 19.4 65 18.3 93 93 S 3 6 30.03 1017 9 14 0.00 0.00
11:50 pm 23:50 Clear with Mist and Fog 66 19 64 18 94 94 Calm 30.03 1017 2 3 0.00 0.00
11:53 pm 23:53 Clear with Mist and Fog 66 18.9 64 17.8 93 93 Calm 30.05 1018 2 3 0.00 0.00

Powered by AerisWeather